Location: Amherst
(42.5000°N, 72.5000°W)
Time: 12:02:45
(UTC-04:00)

ISS - Pass Details

Date: 23 May 2018
Orbit: 402 x 407 km, 51.6° (Epoch: 23 May)

Event Time Altitude Azimuth Distance (km) Brightness Sun altitude
Rises 22:18:31 0° 268° (W) 2,315 0.5 -18.1°
Reaches altitude 10° 22:20:49 10° 282° (WNW) 1,457 -0.4 -18.4°
Maximum altitude 22:23:37 26° 341° (NNW) 845 -1.5 -18.7°
Drops below altitude 10° 22:26:26 10° 40° (NE) 1,459 -0.8 -19.0°
Sets 22:28:44 0° 53° (NE) 2,320 0.1 -19.2°
